CST,Max TemperatureF,Mean TemperatureF,Min TemperatureF,Max Dew PointF,MeanDew PointF,Min DewpointF,Max Humidity, Mean Humidity, Min Humidity, Max Sea Level PressureIn, Mean Sea Level PressureIn, Min Sea Level PressureIn, Max VisibilityMiles, Mean VisibilityMiles, Min VisibilityMiles, Max Wind SpeedMPH, Mean Wind SpeedMPH, Max Gust SpeedMPH,PrecipitationIn, CloudCover, Events, WindDirDegrees
2013-1-1,33,25,17,30,22,12,93,83,74,30.24,30.16,30.08,10,7,1,13,6,17,0.00,5,,349
2013-1-2,23,16,10,14,11,7,92,77,54,30.30,30.25,30.23,10,10,7,5,1,,0.00,0,,297
2013-1-3,37,24,10,28,19,7,93,82,60,30.40,30.32,30.23,10,10,7,7,1,,0.00,2,,253
2013-1-4,35,26,17,27,23,16,93,83,69,30.47,30.39,30.34,10,9,2,9,2,,0.00,2,,218
2013-1-5,37,28,19,34,27,18,93,87,75,30.36,30.27,30.15,10,8,2,8,3,,0.00,4,Rain,196
2013-1-6,37,28,19,34,27,18,93,82,70,30.40,30.24,30.08,10,9,2,10,6,20,0.00,4,,271
2013-1-7,35,26,17,28,23,14,93,85,70,30.46,30.35,30.22,10,6,1,9,2,,0.00,0,,168
2013-1-8,42,32,21,34,29,19,93,79,65,30.27,30.21,30.17,10,8,3,8,3,,0.00,2,,171
2013-1-9,55,46,37,46,39,34,100,82,51,30.50,30.38,30.21,10,7,0,7,3,,0.18,3,Fog-Rain,2
2013-1-10,60,50,39,57,44,34,100,87,70,30.48,30.18,29.85,10,6,1,18,7,25,0.79,7,Rain,98
2013-1-11,60,56,51,59,52,46,94,86,72,29.95,29.89,29.84,10,10,7,20,11,25,0.22,2,Rain,199
2013-1-12,62,52,39,57,51,37,94,90,82,29.97,29.87,29.69,10,8,2,20,6,29,1.68,4,Rain-Thunderstorm,197
2013-1-13,39,30,21,37,27,19,93,89,80,30.33,30.06,29.81,10,7,1,15,9,22,0.65,7,Rain-Snow-Thunderstorm,334
2013-1-14,26,22,19,21,18,16,86,82,74,30.47,30.41,30.33,10,10,10,13,5,16,0.00,1,,3
2013-1-15,28,24,21,25,22,18,93,87,80,30.38,30.27,30.13,10,10,7,15,8,17,0.00,2,,19
2013-1-16,33,30,26,27,26,25,93,83,70,30.14,30.11,30.05,10,10,7,8,3,,0.00,3,,252
2013-1-17,41,34,26,36,28,23,93,81,65,30.49,30.26,30.13,10,10,7,16,4,23,0.00,2,,351
2013-1-18,42,32,21,30,26,19,93,77,57,30.53,30.40,30.21,10,10,5,15,4,18,0.00,0,,190
2013-1-19,55,46,37,41,35,27,87,66,47,30.22,30.09,29.96,10,10,10,22,12,28,0.00,0,,214
2013-1-20,44,34,24,37,20,12,87,61,38,30.34,30.25,30.09,10,10,10,14,6,18,0.00,1,,345
2013-1-21,24,20,15,18,6,-4,80,53,33,30.37,30.30,30.23,10,10,10,15,6,23,0.00,3,,311
2013-1-22,21,16,12,12,1,-4,74,51,36,30.47,30.41,30.37,10,10,10,9,4,,0.00,5,,306
2013-1-23,37,26,14,23,16,12,93,69,47,30.39,30.27,30.14,10,10,10,9,2,16,0.00,0,,228
2013-1-24,28,22,17,18,9,1,69,54,34,30.61,30.46,30.30,10,10,10,20,10,26,0.00,1,,55
2013-1-25,37,30,24,25,16,3,86,59,37,30.30,30.16,30.11,10,10,10,13,5,16,0.00,5,,229
2013-1-26,35,29,23,23,19,16,80,66,44,30.40,30.33,30.21,10,10,10,9,3,,0.00,0,,17
2013-1-27,44,34,24,43,30,19,93,86,74,30.35,30.22,30.05,10,6,2,12,5,18,0.20,5,Rain,139
2013-1-28,57,50,44,55,50,43,94,93,87,30.08,30.02,29.97,10,4,0,16,8,,0.09,7,Fog-Rain,182
2013-1-29,68,60,53,61,57,52,94,87,77,29.97,29.74,29.39,10,8,4,28,13,38,0.25,6,Rain-Thunderstorm,186
2013-1-30,55,42,30,52,39,21,100,85,69,29.87,29.54,29.39,10,9,4,21,9,32,0.72,8,Rain-Snow,246
2013-1-31,35,25,15,28,18,5,93,70,58,30.32,30.04,29.88,10,9,0,18,11,29,0.00,7,Snow,279